User: anonymous   Login
Location: Unspecified
(0.0000°N, 0.0000°E)
Time: 22:24:46
(UTC+00:00)
Language:

KAITUO 1B - Orbit

View from above orbital plane
View from above orbital plane
View from above satellite
View from above satellite

Ground track
Ground track

The orbit data is extracted from the following two-line orbital elements,

1 40912U 15049P   18344.44748005  .00000971  00000-0  49296-4 0  9998
2 40912  97.4497 349.3337 0016792 114.0912  21.2923 15.19162883178428
Epoch (UTC): 10 December 2018 10:44:22
Eccentricity: 0.0016792
inclination: 97.4497°
perigee height: 497 km
apogee height: 520 km
right ascension of ascending node: 349.3337°
argument of perigee: 114.0912°
revolutions per day: 15.19162883
mean anomaly at epoch: 21.2923°
orbit number at epoch: 17842

The dashed part of the orbit path shows where the satellite is in the earth's shadow,  

DLR